Main page
METAR-TAF:

METAR-TAF

Airports :

Mount Pleasant Municipal Airport

Mount Pleasant, Iowa, United States

latitude: 40-56-48N, longitude: 091-30-40W, elevation: 735 ft

Current weather observation

The report was made 22 minutes ago, at 02:55 UTC
Calm wind
Temperature 73°F
Humidity 89%
Pressure 29.91 in. Hg
Visibility: 10 miles
Clear sky

METAR: KMPZ 240255Z AUTO 00000KT 10SM CLR 23/21 A2991 RMK AO2

Time: 22:17 (03:17 UTC)


TAF: missing

Weather observations and forecasts of more than 4000 airports (METAR and TAF reports).

The available stations are represented by yellow and red dots on the map.

Hover mouse over dot to see the name of the station.

Then click to see weather observations and forecasts.

To change the map : click on the green buttons with a black cross to zoom in, on the green button with a dash to zoom out, or on the green arrows for adjacent maps.


METAR-TAF: